Die Mitgliedschaft ist kostenlos – mit vollem Zugang zu allen Funktionen; Upgrades bieten Extras wie Bannerwerbung und Newsletter-Platzierungen. ✅ Signatur-Links sind jetzt für alle frei. Teilen Sie Ihre eigenen Gedanken und Erfahrungen; bei Verstößen können Konten geschlossen werden.

Willkommen!

Durch Ihre Registrierung bei uns können Sie mit anderen Mitgliedern unserer Community diskutieren, teilen und private Nachrichten austauschen.

Jetzt anmelden!

Live-Überblick: .DE-Domainauktionen

Möchten Sie eine Premium-Domain .DE kaufen? Unser Live-Auktionsfeed für Domains bietet Ihnen eine einfache Möglichkeit, die perfekte Webadresse für Ihr Unternehmen zu sichern. Mit einer großen Auswahl an Angeboten finden Sie Domains mit SEO-Potenzial, Markenfähigkeit und hoher Wiedererkennbarkeit.

Seien Sie dabei und bieten Sie auf Ihre Wunsch-Domain .DE! Consultdomain.de-Mitglieder können unsere Plattform nutzen, um wertvolle Domains zu finden und in Echtzeit zu konkurrieren. Verpassen Sie nicht diese spannende Gelegenheit, Ihre Online-Präsenz zu stärken.

Live 34.247 auctions 0 selected
Sammlungen
Domain DL Current bid Gebote Ends in Plattform REC RE WFAY DW
tortugabay-fest.de 15 0,00€ 0 Sep. 4, 19:00 0 0
totaljs.de 7 0,00€ 0 Sep. 4, 19:00 3 .cloud .com .net 2
touche-limburg.de 14 0,00€ 0 Sep. 4, 19:00 0 0
tp-automotive.de 13 0,00€ 0 Sep. 4, 19:00 1 .com 0
tradeuni.de 8 0,00€ 0 Sep. 4, 19:00 4 .com .de .online 2
tradingwolf.de 11 0,00€ 0 Sep. 4, 19:00 3 .com .net .xyz 2
tragegruppe-oberhausen.de 22 0,00€ 0 Sep. 4, 19:00 0 0
trailer-manufactory.de 19 0,00€ 0 Sep. 4, 19:00 1 .com 0
trainingsraum-bs.de 16 0,00€ 0 Sep. 4, 19:00 0 0
trannyescort.de 12 0,00€ 0 Sep. 4, 19:00 4 .co.uk .com .de 3
transenescort.de 13 0,00€ 0 Sep. 4, 19:00 2 .com .de 3
transgenderescort.de 17 0,00€ 0 Sep. 4, 19:00 2 .com .de 2
transpornos.de 11 0,00€ 0 Sep. 4, 19:00 0 2
travelclips24.de 13 0,00€ 0 Sep. 4, 19:00 2 .com .de 0
travelling-historic-germany.de 27 0,00€ 0 Sep. 4, 19:00 1 .com 0
travelpin.de 9 0,00€ 0 Sep. 4, 19:00 8 .app .co.uk .com 2
treasureville.de 13 0,00€ 0 Sep. 4, 19:00 3 .com .de .net 2
trexxak.de 7 0,00€ 0 Sep. 4, 19:00 1 .com 0
tri-glide.de 9 0,00€ 0 Sep. 4, 19:00 2 .com .shop 0
trinkwasserberater.de 18 0,00€ 0 Sep. 4, 19:00 1 .com 5
tripscasino.de 11 0,00€ 0 Sep. 4, 19:00 23 .app .best .bet 2
tromp-haustechnik.de 17 0,00€ 0 Sep. 4, 19:00 0 0
tropfclean.de 10 0,00€ 0 Sep. 4, 19:00 0 3
true-word.de 9 0,00€ 0 Sep. 4, 19:00 3 .com .de .org 0
trustedleaders.de 14 0,00€ 0 Sep. 4, 19:00 5 .club .co.uk .com 2
trustkernai.de 11 0,00€ 0 Sep. 4, 19:00 5 .com .net .org 3
tsdissum.de 8 0,00€ 0 Sep. 4, 19:00 0 3
tsv1906.de 7 0,00€ 0 Sep. 4, 19:00 0 0
tsv-trappstadt.de 14 0,00€ 0 Sep. 4, 19:00 0 0
ttvrosenheim.de 12 0,00€ 0 Sep. 4, 19:00 0 0
tuermer-verlag.de 14 0,00€ 0 Sep. 4, 19:00 0 0
turnier-hv.de 10 0,00€ 0 Sep. 4, 19:00 0 0
tvmountfinder.de 13 0,00€ 0 Sep. 4, 19:00 2 .com .de 3
tvn-turnen.de 10 0,00€ 0 Sep. 4, 19:00 0 0
twsw.de 4 0,00€ 0 Sep. 4, 19:00 8 .club .co.uk .com 0
ueberlingen-familienberatung.de 28 0,00€ 0 Sep. 4, 19:00 0 0
ugkn-backend.de 12 0,00€ 0 Sep. 4, 19:00 0 0
uhrenservicecenter.de 18 0,00€ 0 Sep. 4, 19:00 0 4
ukvali.de 6 0,00€ 0 Sep. 4, 19:00 0 2
ulm-fitnessstudio-ulm.de 21 0,00€ 0 Sep. 4, 19:00 0 0
uln-backend.de 11 0,00€ 0 Sep. 4, 19:00 0 0
underground-fotountergrund.de 26 0,00€ 0 Sep. 4, 19:00 0 0
unicornism.de 10 0,00€ 0 Sep. 4, 19:00 4 .com .de .info 2
unitanz-aachen.de 14 0,00€ 0 Sep. 4, 19:00 0 0
unlimited-love.de 14 0,00€ 0 Sep. 4, 19:00 1 .fr 0
unlimited-production.de 20 0,00€ 0 Sep. 4, 19:00 0 0
unopened.de 8 0,00€ 0 Sep. 4, 19:00 8 .app .cards .co.uk 1
unsere-grafikstube.de 18 0,00€ 0 Sep. 4, 19:00 0 0
unternehmen-freiheit.de 20 0,00€ 0 Sep. 4, 19:00 0 0
upperhousen.de 11 0,00€ 0 Sep. 4, 19:00 2 .com .net 2
uqhd.de 4 0,00€ 0 Sep. 4, 19:00 2 .com .xyz 0
urologie-gestalten-digital.de 26 0,00€ 0 Sep. 4, 19:00 0 0
urologie-partner.de 16 0,00€ 0 Sep. 4, 19:00 0 0
vapestreams.de 11 0,00€ 0 Sep. 4, 19:00 16 .club .co.uk .com 3
vdgarten.de 8 0,00€ 0 Sep. 4, 19:00 0 2
vdlufa2022.de 10 0,00€ 0 Sep. 4, 19:00 0 0
velnoshop.de 9 0,00€ 0 Sep. 4, 19:00 1 .com 3
vennheide.de 9 0,00€ 0 Sep. 4, 19:00 0 3
verdi-wehsner.de 13 0,00€ 0 Sep. 4, 19:00 0 0
verdrussforum.de 13 0,00€ 0 Sep. 4, 19:00 0 3
verein-rasenstark.de 17 0,00€ 0 Sep. 4, 19:00 0 0
vereint2024.de 11 0,00€ 0 Sep. 4, 19:00 0 0
vergaberecht40.de 14 0,00€ 0 Sep. 4, 19:00 1 .com 0
veronikasartwork.de 16 0,00€ 0 Sep. 4, 19:00 0 3
verputzer-maler.de 15 0,00€ 0 Sep. 4, 19:00 0 0
verschoenerungsverein-schweigern.de 32 0,00€ 0 Sep. 4, 19:00 0 0
versicherung-csc.de 16 0,00€ 0 Sep. 4, 19:00 3 .com .info .org 0
vertrag40.de 9 0,00€ 0 Sep. 4, 19:00 1 .com 0
vertriebsagentur-berlin.de 23 0,00€ 0 Sep. 4, 19:00 0 0
vertriebskarriere24.de 19 0,00€ 0 Sep. 4, 19:00 0 0
vespass.de 7 0,00€ 0 Sep. 4, 19:00 4 .com .info .org 2
vg-hausverwaltung.de 17 0,00€ 0 Sep. 4, 19:00 0 0
vhs-archiv.de 10 0,00€ 0 Sep. 4, 19:00 0 0
victoriascafe.de 13 0,00€ 0 Sep. 4, 19:00 5 .co.uk .com .net 2
videomann.de 9 0,00€ 0 Sep. 4, 19:00 1 .com 2
viessmann-hof.de 13 0,00€ 0 Sep. 4, 19:00 0 0
villakatherina.de 14 0,00€ 0 Sep. 4, 19:00 1 .com 2
villa-neun.de 10 0,00€ 0 Sep. 4, 19:00 0 0
villaschola.de 11 0,00€ 0 Sep. 4, 19:00 1 .com 2
vini-marsala.de 12 0,00€ 0 Sep. 4, 19:00 0 0
vipfriseursalon.de 15 0,00€ 0 Sep. 4, 19:00 0 3
virage-athleisure.de 17 0,00€ 0 Sep. 4, 19:00 2 .com .online 0
viralvideoaward.de 15 0,00€ 0 Sep. 4, 19:00 1 .com 3
virtualcell.de 11 0,00€ 0 Sep. 4, 19:00 5 .bio .com .net 2
visionsex.de 9 0,00€ 0 Sep. 4, 19:00 2 .com .site 2
vissel-fussball.de 15 0,00€ 0 Sep. 4, 19:00 0 0
vivalaspora.de 11 0,00€ 0 Sep. 4, 19:00 4 .bio .club .com 4
vob40.de 5 0,00€ 0 Sep. 4, 19:00 2 .com .online 0
vobb40.de 6 0,00€ 0 Sep. 4, 19:00 2 .com .online 0
vocomi.de 6 0,00€ 0 Sep. 4, 19:00 2 .app .com 0
volker-ehlers.de 13 0,00€ 0 Sep. 4, 19:00 0 0
vollepower.de 10 0,00€ 0 Sep. 4, 19:00 1 .org 3
voltis-foerdern.de 15 0,00€ 0 Sep. 4, 19:00 0 0
voltwerks.de 9 0,00€ 0 Sep. 4, 19:00 3 .com .online .shop 3
vom-liescher-forst.de 18 0,00€ 0 Sep. 4, 19:00 0 0
vonahnen.de 8 0,00€ 0 Sep. 4, 19:00 3 .com .net .se 0
von-andlau.de 10 0,00€ 0 Sep. 4, 19:00 1 .com 0
von-dem-schwarzen-blitz.de 23 0,00€ 0 Sep. 4, 19:00 0 0
vonliebeundkrieg.de 16 0,00€ 0 Sep. 4, 19:00 0 0
vstools.de 7 0,00€ 0 Sep. 4, 19:00 4 .com .de .site 2
3.301–3.400 of 34.247
Zurück
Oben